Terminal Aerodrome Forecast
Issued by NWS Mt. Holly, NJ

Home | Current Version | Previous Version | Text Only | Print | Product List | Glossary On
Versions: 1 2 3 4 5 6 7 8 9 10 11 12 13 14 15 16 17
000
FTUS41 KPHI 262320
TAFACY
TAF
KACY 262320Z 2700/2724 01004KT P6SM SCT080
     FM270300 36004KT P6SM SCT035 BKN080
     FM271000 32010KT P6SM BKN035
     FM272200 32009KT P6SM SCT040=

USA.gov is the U.S. government's official web portal to all federal, state and local government web resources and services.